Flag for France Weather past 2 weeks in Le Havre, France

Now
54 °F

Clear.


Feels Like: 50 °F
Forecast: 43 / 55 °F
Wind: 12 mph from Northeast

Location: La Heve

Current Time: Apr 18, 2015 at 9:45:31 PM

Latest Report: Apr 18, 2015 at 9:00 PM


Visibility: N/A

Pressure: 30.15 "Hg

Humidity: 47%

Dew point: 34 °F

Location of Le HavreLocation

Historic Weather in Le Havre — Graph

°F

Le Havre temperature yesterday

Maximum temperature yesterday: 63 °F (at 3:30 PM)
Minimum temperature yesterday: 48 °F (at 11:30 PM)
Average temperature yesterday: 54 °F

Past Weeks' High & Low Weather Summary

 TemperatureHumidityPressure
High77 °F (Apr 16, 2:30 PM)100% (Apr 4, 2:30 AM)30.63 "Hg (Apr 4, 2:30 AM)
Low34 °F (Apr 5, 6:30 AM)27% (Apr 16, 5:30 PM)29.83 "Hg (Apr 16, 4:00 PM)
Average52 °F71%30.24 "Hg
* Reported Apr 3 8:00 PM — Apr 18 8:30 PM, Le Havre, Weather by CustomWeather, © 2015

Note: Actual official high and low records may vary slightly from our data, if they occured in-between our weather recording intervals... More about our weather records

Advertising

Le Havre weather history for previous 24 hours

 ConditionsComfort  
Time TempWeatherWind HumidityBarometerVisibility
8:30 PM
Sat, Apr 18
55 °FClear.14 mph44%30.15 "HgN/A
8:00 PM57 °FClear.14 mph44%30.15 "HgN/A
7:30 PM57 °FClear.18 mph41%30.15 "HgN/A
7:00 PM59 °FClear.18 mph39%30.15 "HgN/A
6:30 PM59 °FClear.18 mph39%30.15 "HgN/A
6:00 PM59 °FClear.21 mph42%30.15 "HgN/A
5:30 PM61 °FClear.18 mph42%30.15 "HgN/A
5:00 PM61 °FClear.18 mph36%30.15 "HgN/A
4:30 PM59 °FClear.20 mph39%30.18 "HgN/A
4:00 PM61 °FClear.18 mph36%30.18 "HgN/A
3:30 PM61 °FClear.17 mph39%30.18 "HgN/A
3:00 PM59 °FClear.22 mph39%30.18 "HgN/A
2:30 PM59 °FClear.21 mph36%30.18 "HgN/A
2:00 PM57 °FClear.21 mph39%30.18 "HgN/A
1:30 PM57 °FClear.21 mph44%30.21 "HgN/A
1:00 PM57 °FClear.21 mph41%30.21 "HgN/A
12:30 PM55 °FClear.20 mph47%30.21 "HgN/A
12:00 PM54 °FClear.21 mph47%30.21 "HgN/A
11:30 AM54 °FClear.21 mph47%30.21 "HgN/A
11:00 AM52 °FClear.20 mph54%30.21 "HgN/A
10:30 AM50 °FClear.17 mph58%30.21 "HgN/A
10:00 AM50 °FClear.17 mph58%30.21 "HgN/A
9:30 AM48 °FClear.15 mph62%30.21 "HgN/A
9:00 AM46 °FClear.14 mph66%30.21 "HgN/A
8:30 AM45 °FClear.15 mph71%30.21 "HgN/A
8:00 AM45 °FClear.14 mph71%30.18 "HgN/A
7:30 AM45 °FClear.15 mph71%30.18 "HgN/A
7:00 AM45 °FClear.16 mph71%30.18 "HgN/A
6:30 AM45 °FClear.15 mph76%30.18 "HgN/A
6:00 AM45 °FClear.13 mph76%30.18 "HgN/A
5:30 AM45 °FClear.15 mph76%30.18 "HgN/A
5:00 AM45 °FClear.15 mph76%30.18 "HgN/A
4:30 AM45 °FClear.16 mph76%30.18 "HgN/A
4:00 AM45 °FClear.15 mph81%30.18 "HgN/A
3:30 AM45 °FClear.16 mph81%30.18 "HgN/A
3:00 AM45 °FClear.17 mph81%30.18 "HgN/A
2:30 AM45 °FClear.16 mph87%30.18 "HgN/A
2:00 AM46 °FClear.18 mph82%30.18 "HgN/A
1:30 AM46 °FClear.18 mph82%30.18 "HgN/A
1:00 AM46 °FClear.18 mph87%30.15 "HgN/A
12:30 AM48 °FClear.18 mph82%30.15 "HgN/A
12:00 AM48 °FClear.18 mph82%30.15 "HgN/A
11:30 PM
Fri, Apr 17
48 °FClear.16 mph82%30.15 "HgN/A
10:30 PM50 °FClear.16 mph76%30.12 "HgN/A
10:00 PM50 °FClear.14 mph82%30.12 "HgN/A
9:30 PM50 °FLight rain. Cloudy.14 mph82%30.09 "HgN/A
9:00 PM50 °FLight rain. Cloudy.14 mph82%30.09 "HgN/A
Weather by CustomWeather, © 2015

See weather overviewHow to use our weather pages